HBVER LGKR-EDJA

Flight info

Callsign HBVER
Flight time 1h 48m
Altitude 36000
Route OLGAT2F OLGAT DCT AIOSA DCT ELGUS DCT PUL DCT MONFA DCT BAKOR DCT SOTOV P66 KPT KPT1C
Aircraft C750/M-SBDE3FGHRWXY/S

Departure

Time 2026-04-29 20:21
Airport Corfu Ioannis Kapodistrias International Airport (LGKR)

Arrival

Time 2026-04-29 22:10
Airport Memmingen Allgau Airport (EDJA)
Time Latitude Longitude Altitude Speed Heading
2026-04-29 19:40 39.60892 19.91305 5 ft 0 kts 77°
2026-04-29 20:02 39.60888 19.91281 5 ft 2 kts 77°
2026-04-29 20:02 39.60887 19.91274 5 ft 4 kts 77°
2026-04-29 20:03 39.60881 19.91217 5 ft 4 kts 95°
2026-04-29 20:03 39.60886 19.91187 5 ft 1 kts 115°
2026-04-29 20:03 39.60888 19.91182 5 ft 0 kts 115°
2026-04-29 20:07 39.60885 19.91184 5 ft 0 kts 137°
2026-04-29 20:07 39.60882 19.91184 5 ft 1 kts 159°
2026-04-29 20:07 39.60878 19.91183 5 ft 1 kts 189°
2026-04-29 20:07 39.60874 19.91182 5 ft 1 kts 189°
2026-04-29 20:08 39.60869 19.91181 5 ft 1 kts 189°
2026-04-29 20:08 39.60866 19.91180 5 ft 1 kts 189°
2026-04-29 20:08 39.60853 19.91178 5 ft 2 kts 186°
2026-04-29 20:08 39.60837 19.91179 5 ft 3 kts 169°
2026-04-29 20:09 39.60818 19.91185 5 ft 3 kts 168°
2026-04-29 20:09 39.60798 19.91190 4 ft 3 kts 168°
2026-04-29 20:09 39.60780 19.91195 4 ft 2 kts 167°
2026-04-29 20:09 39.60764 19.91199 4 ft 2 kts 168°
2026-04-29 20:10 39.60752 19.91203 4 ft 2 kts 168°
2026-04-29 20:10 39.60742 19.91205 4 ft 1 kts 168°
2026-04-29 20:10 39.60721 19.91211 5 ft 4 kts 169°
2026-04-29 20:10 39.60687 19.91219 5 ft 5 kts 169°
2026-04-29 20:11 39.60658 19.91226 5 ft 4 kts 169°
2026-04-29 20:11 39.60637 19.91231 5 ft 2 kts 176°
2026-04-29 20:11 39.60622 19.91228 5 ft 2 kts 193°
2026-04-29 20:11 39.60605 19.91218 5 ft 3 kts 210°
2026-04-29 20:12 39.60581 19.91199 5 ft 5 kts 212°
2026-04-29 20:12 39.60551 19.91174 5 ft 6 kts 212°
2026-04-29 20:12 39.60512 19.91152 5 ft 7 kts 195°
2026-04-29 20:12 39.60466 19.91145 5 ft 7 kts 177°
2026-04-29 20:13 39.60417 19.91156 5 ft 7 kts 169°
2026-04-29 20:13 39.60383 19.91164 6 ft 8 kts 169°
2026-04-29 20:13 39.60317 19.91181 6 ft 7 kts 167°
2026-04-29 20:13 39.60271 19.91193 7 ft 6 kts 168°
2026-04-29 20:14 39.60230 19.91204 8 ft 6 kts 169°
2026-04-29 20:14 39.60190 19.91214 8 ft 6 kts 169°
2026-04-29 20:14 39.60149 19.91225 8 ft 7 kts 168°
2026-04-29 20:14 39.60100 19.91237 7 ft 8 kts 169°
2026-04-29 20:15 39.60045 19.91251 7 ft 8 kts 169°
2026-04-29 20:15 39.59986 19.91265 7 ft 9 kts 169°
2026-04-29 20:15 39.59930 19.91281 8 ft 8 kts 167°
2026-04-29 20:15 39.59876 19.91296 8 ft 8 kts 168°
2026-04-29 20:16 39.59841 19.91305 8 ft 8 kts 168°
2026-04-29 20:16 39.59760 19.91326 7 ft 10 kts 169°
2026-04-29 20:16 39.59685 19.91345 6 ft 12 kts 168°
2026-04-29 20:16 39.59602 19.91366 5 ft 13 kts 169°
2026-04-29 20:17 39.59515 19.91389 4 ft 13 kts 168°
2026-04-29 20:17 39.59430 19.91412 3 ft 12 kts 168°
2026-04-29 20:17 39.59352 19.91432 4 ft 11 kts 169°
2026-04-29 20:17 39.59286 19.91449 4 ft 9 kts 169°
2026-04-29 20:18 39.59248 19.91458 4 ft 8 kts 169°
2026-04-29 20:18 39.59207 19.91491 4 ft 6 kts 129°
2026-04-29 20:18 39.59171 19.91492 4 ft 3 kts 265°
2026-04-29 20:18 39.59180 19.91478 4 ft 2 kts 326°
2026-04-29 20:19 39.59194 19.91473 4 ft 2 kts 348°
2026-04-29 20:20 39.59282 19.91449 4 ft 48 kts 349°
2026-04-29 20:20 39.59970 19.91275 8 ft 142 kts 348°
2026-04-29 20:20 39.61069 19.90981 160 ft 175 kts 348°
2026-04-29 20:21 39.62341 19.90643 512 ft 200 kts 348°
2026-04-29 20:21 39.63778 19.90299 984 ft 214 kts 349°
2026-04-29 20:21 39.65124 19.89531 1649 ft 217 kts 317°
2026-04-29 20:21 39.65888 19.87879 2408 ft 215 kts 285°
2026-04-29 20:22 39.65964 19.85950 3193 ft 214 kts 268°
2026-04-29 20:22 39.65921 19.84048 4166 ft 213 kts 268°
2026-04-29 20:22 39.65889 19.82120 5118 ft 215 kts 268°
2026-04-29 20:22 39.65881 19.80164 5975 ft 219 kts 272°
2026-04-29 20:23 39.66446 19.78290 6594 ft 236 kts 304°
2026-04-29 20:23 39.67618 19.76625 6958 ft 264 kts 313°
2026-04-29 20:23 39.68967 19.74908 7649 ft 274 kts 314°
2026-04-29 20:23 39.70296 19.73150 8756 ft 272 kts 313°
2026-04-29 20:24 39.71608 19.71365 9744 ft 275 kts 312°
2026-04-29 20:24 39.72948 19.69559 10452 ft 284 kts 313°
2026-04-29 20:24 39.74369 19.67656 10613 ft 311 kts 313°
2026-04-29 20:24 39.75939 19.65550 10668 ft 337 kts 313°
2026-04-29 20:25 39.77587 19.63338 11326 ft 341 kts 313°
2026-04-29 20:25 39.79240 19.61117 12027 ft 344 kts 313°
2026-04-29 20:25 39.80910 19.58869 12681 ft 348 kts 313°
2026-04-29 20:25 39.82600 19.56591 13345 ft 351 kts 313°
2026-04-29 20:26 39.84307 19.54291 13978 ft 355 kts 313°
2026-04-29 20:26 39.86029 19.51970 14559 ft 358 kts 312°
2026-04-29 20:26 39.87773 19.49633 15146 ft 361 kts 313°
2026-04-29 20:26 39.89533 19.47279 15739 ft 364 kts 313°
2026-04-29 20:27 39.91280 19.44933 16350 ft 367 kts 312°
2026-04-29 20:27 39.92481 19.43316 16769 ft 369 kts 312°
2026-04-29 20:27 39.94860 19.40115 17604 ft 373 kts 312°
2026-04-29 20:27 39.96672 19.37677 18248 ft 377 kts 312°
2026-04-29 20:28 39.98504 19.35210 18840 ft 380 kts 312°
2026-04-29 20:28 40.00344 19.32727 19441 ft 382 kts 312°
2026-04-29 20:28 40.02200 19.30224 20057 ft 385 kts 312°
2026-04-29 20:28 40.04068 19.27700 20676 ft 388 kts 312°
2026-04-29 20:29 40.05951 19.25155 21291 ft 391 kts 312°
2026-04-29 20:29 40.07848 19.22588 21900 ft 394 kts 312°
2026-04-29 20:29 40.09734 19.20034 22493 ft 397 kts 312°
2026-04-29 20:29 40.11658 19.17427 23086 ft 401 kts 312°
2026-04-29 20:30 40.13601 19.14792 23664 ft 404 kts 312°
2026-04-29 20:30 40.15552 19.12142 24172 ft 406 kts 312°
2026-04-29 20:30 40.17515 19.09476 24729 ft 407 kts 312°
2026-04-29 20:30 40.19484 19.06799 25228 ft 410 kts 311°
2026-04-29 20:31 40.21463 19.04103 25712 ft 412 kts 311°
2026-04-29 20:31 40.23455 19.01390 26205 ft 414 kts 311°
2026-04-29 20:31 40.25605 18.98848 26645 ft 420 kts 320°
2026-04-29 20:31 40.27908 18.96567 27131 ft 422 kts 320°
2026-04-29 20:32 40.30233 18.94216 27620 ft 424 kts 320°
2026-04-29 20:32 40.32566 18.91831 28108 ft 427 kts 320°
2026-04-29 20:32 40.34925 18.89449 28596 ft 429 kts 320°
2026-04-29 20:32 40.37305 18.87060 29075 ft 432 kts 320°
2026-04-29 20:33 40.39693 18.84646 29542 ft 435 kts 320°
2026-04-29 20:33 40.42092 18.82208 30016 ft 437 kts 320°
2026-04-29 20:33 40.44505 18.79759 30445 ft 440 kts 320°
2026-04-29 20:33 40.46935 18.77299 30847 ft 442 kts 320°
2026-04-29 20:34 40.49367 18.74830 31374 ft 440 kts 320°
2026-04-29 20:34 40.51744 18.72414 32015 ft 437 kts 319°
2026-04-29 20:34 40.54141 18.69974 32597 ft 435 kts 319°
2026-04-29 20:34 40.56528 18.67542 33188 ft 433 kts 319°
2026-04-29 20:35 40.58905 18.65120 33782 ft 431 kts 319°
2026-04-29 20:35 40.61272 18.62705 34334 ft 430 kts 319°
2026-04-29 20:35 40.63630 18.60296 34815 ft 429 kts 319°
2026-04-29 20:35 40.65986 18.57887 35277 ft 429 kts 319°
2026-04-29 20:36 40.68338 18.55481 35766 ft 426 kts 319°
2026-04-29 20:36 40.70677 18.53086 36044 ft 429 kts 319°
2026-04-29 20:36 40.73028 18.50672 36038 ft 440 kts 319°
2026-04-29 20:36 40.75471 18.48163 36044 ft 450 kts 319°
2026-04-29 20:37 40.80518 18.42983 36055 ft 469 kts 319°
2026-04-29 20:37 40.85756 18.37588 36050 ft 485 kts 319°
2026-04-29 20:38 40.91110 18.32069 36051 ft 490 kts 319°
2026-04-29 20:38 40.96480 18.26515 36048 ft 490 kts 319°
2026-04-29 20:39 41.01852 18.20950 36045 ft 490 kts 319°
2026-04-29 20:39 41.07187 18.15411 36042 ft 490 kts 319°
2026-04-29 20:40 41.12555 18.09825 36044 ft 491 kts 319°
2026-04-29 20:40 41.17918 18.04232 36062 ft 491 kts 319°
2026-04-29 20:41 41.23271 17.98640 36035 ft 489 kts 319°
2026-04-29 20:41 41.28617 17.93041 36035 ft 489 kts 319°
2026-04-29 20:42 41.33961 17.87432 36028 ft 489 kts 319°
2026-04-29 20:42 41.39263 17.81856 36028 ft 489 kts 319°
2026-04-29 20:43 41.44540 17.76299 36020 ft 477 kts 319°
2026-04-29 20:43 41.49758 17.70781 36013 ft 480 kts 319°
2026-04-29 20:44 41.54988 17.65249 36016 ft 480 kts 319°
2026-04-29 20:44 41.60213 17.59704 36014 ft 480 kts 319°
2026-04-29 20:45 41.65437 17.54153 36011 ft 480 kts 319°
2026-04-29 20:45 41.70621 17.48632 36022 ft 479 kts 319°
2026-04-29 20:46 41.75835 17.43064 36024 ft 479 kts 318°
2026-04-29 20:46 41.81046 17.37491 36024 ft 478 kts 318°
2026-04-29 20:47 41.86243 17.31919 36027 ft 478 kts 318°
2026-04-29 20:47 41.91439 17.26336 36048 ft 478 kts 318°
2026-04-29 20:48 41.96182 17.20273 36022 ft 474 kts 311°
2026-04-29 20:48 42.00834 17.13995 36031 ft 474 kts 312°
2026-04-29 20:49 42.05459 17.07685 36033 ft 474 kts 312°
2026-04-29 20:49 42.10088 17.01379 36033 ft 473 kts 312°
2026-04-29 20:50 42.14711 16.95059 36033 ft 473 kts 312°
2026-04-29 20:50 42.19333 16.88729 36043 ft 474 kts 312°
2026-04-29 20:51 42.23951 16.82389 36045 ft 474 kts 312°
2026-04-29 20:51 42.28536 16.76082 36049 ft 474 kts 312°
2026-04-29 20:52 42.33144 16.69728 36051 ft 474 kts 311°
2026-04-29 20:52 42.37758 16.63351 36054 ft 474 kts 311°
2026-04-29 20:53 42.42370 16.56964 36063 ft 475 kts 311°
2026-04-29 20:53 42.46969 16.50580 36049 ft 473 kts 311°
2026-04-29 20:54 42.53827 16.41035 36052 ft 473 kts 311°
2026-04-29 20:55 42.58416 16.34629 36058 ft 473 kts 311°
2026-04-29 20:55 42.63002 16.28213 36058 ft 473 kts 311°
2026-04-29 20:56 42.67582 16.21791 36067 ft 473 kts 311°
2026-04-29 20:56 42.72149 16.15373 36062 ft 472 kts 311°
2026-04-29 20:57 42.76711 16.08947 36062 ft 472 kts 311°
2026-04-29 20:57 42.81269 16.02512 36065 ft 472 kts 311°
2026-04-29 20:58 42.85792 15.96113 36070 ft 471 kts 311°
2026-04-29 20:58 42.90333 15.89672 36070 ft 471 kts 311°
2026-04-29 20:59 42.94869 15.83225 36065 ft 469 kts 311°
2026-04-29 20:59 42.99387 15.76789 36065 ft 470 kts 311°
2026-04-29 21:00 43.03905 15.70338 36065 ft 470 kts 311°
2026-04-29 21:00 43.08385 15.63928 36055 ft 469 kts 311°
2026-04-29 21:01 43.12902 15.57449 36056 ft 470 kts 311°
2026-04-29 21:01 43.17415 15.50961 36062 ft 470 kts 311°
2026-04-29 21:02 43.21903 15.44494 36062 ft 468 kts 311°
2026-04-29 21:02 43.26390 15.38015 36060 ft 468 kts 311°
2026-04-29 21:03 43.30871 15.31529 36066 ft 468 kts 311°
2026-04-29 21:03 43.35327 15.25064 36053 ft 470 kts 311°
2026-04-29 21:04 43.39816 15.18537 36059 ft 470 kts 311°
2026-04-29 21:04 43.44289 15.12018 36071 ft 467 kts 311°
2026-04-29 21:05 43.48747 15.05504 36088 ft 467 kts 311°
2026-04-29 21:05 43.53231 14.99022 36078 ft 468 kts 314°
2026-04-29 21:06 43.58519 14.93816 36077 ft 474 kts 328°
2026-04-29 21:06 43.64308 14.89426 36100 ft 475 kts 327°
2026-04-29 21:07 43.70076 14.85008 36093 ft 474 kts 328°
2026-04-29 21:07 43.75848 14.80603 36094 ft 474 kts 327°
2026-04-29 21:08 43.81616 14.76175 36101 ft 474 kts 327°
2026-04-29 21:08 43.87384 14.71747 36100 ft 474 kts 327°
2026-04-29 21:09 43.93107 14.67338 36101 ft 474 kts 327°
2026-04-29 21:09 43.98871 14.62890 36101 ft 474 kts 327°
2026-04-29 21:10 44.04634 14.58433 36101 ft 474 kts 327°
2026-04-29 21:10 44.10392 14.53970 36103 ft 473 kts 327°
2026-04-29 21:11 44.16143 14.49500 36107 ft 473 kts 327°
2026-04-29 21:11 44.21851 14.45056 36107 ft 473 kts 327°
2026-04-29 21:12 44.27599 14.40570 36109 ft 473 kts 327°
2026-04-29 21:12 44.33339 14.36080 36108 ft 472 kts 327°
2026-04-29 21:13 44.39074 14.31583 36107 ft 473 kts 327°
2026-04-29 21:13 44.44809 14.27077 36111 ft 473 kts 327°
2026-04-29 21:14 44.50500 14.22594 36131 ft 472 kts 326°
2026-04-29 21:14 44.56208 14.18089 36125 ft 470 kts 326°
2026-04-29 21:15 44.61907 14.13580 36124 ft 471 kts 326°
2026-04-29 21:15 44.67609 14.09058 36115 ft 471 kts 326°
2026-04-29 21:16 44.73315 14.04525 36133 ft 470 kts 326°
2026-04-29 21:16 44.78959 14.00027 36133 ft 470 kts 326°
2026-04-29 21:17 44.84645 13.95488 36134 ft 470 kts 326°
2026-04-29 21:17 44.90238 13.90763 36116 ft 466 kts 320°
2026-04-29 21:18 44.95397 13.85255 36119 ft 463 kts 319°
2026-04-29 21:18 45.00567 13.79791 36131 ft 465 kts 319°
2026-04-29 21:19 45.05685 13.74310 36134 ft 465 kts 319°
2026-04-29 21:19 45.10848 13.68806 36136 ft 465 kts 319°
2026-04-29 21:20 45.15999 13.63278 36164 ft 464 kts 319°
2026-04-29 21:20 45.21113 13.57792 36139 ft 461 kts 319°
2026-04-29 21:21 45.26223 13.52287 36143 ft 461 kts 319°
2026-04-29 21:21 45.31334 13.46776 36147 ft 461 kts 319°
2026-04-29 21:22 45.36406 13.41290 36150 ft 461 kts 319°
2026-04-29 21:22 45.41500 13.35769 36161 ft 459 kts 319°
2026-04-29 21:23 45.46586 13.30243 36153 ft 460 kts 319°
2026-04-29 21:23 45.51399 13.24305 36158 ft 457 kts 314°
2026-04-29 21:24 45.56040 13.18087 36168 ft 458 kts 314°
2026-04-29 21:24 45.60662 13.11844 36172 ft 457 kts 314°
2026-04-29 21:25 45.65288 13.05589 36176 ft 458 kts 314°
2026-04-29 21:25 45.69880 12.99367 36165 ft 459 kts 314°
2026-04-29 21:26 45.74509 12.93078 36175 ft 459 kts 314°
2026-04-29 21:26 45.79137 12.86777 36176 ft 459 kts 314°
2026-04-29 21:27 45.82978 12.81533 36176 ft 459 kts 314°
2026-04-29 21:27 45.88385 12.74136 36175 ft 460 kts 314°
2026-04-29 21:28 45.93022 12.67776 36166 ft 462 kts 314°
2026-04-29 21:28 45.97636 12.61431 36168 ft 462 kts 314°
2026-04-29 21:29 46.02273 12.55039 36167 ft 462 kts 314°
2026-04-29 21:29 46.06906 12.48639 36164 ft 460 kts 314°
2026-04-29 21:30 46.11535 12.42225 36170 ft 462 kts 314°
2026-04-29 21:30 46.16160 12.35803 36165 ft 461 kts 314°
2026-04-29 21:31 46.20746 12.29420 36170 ft 462 kts 314°
2026-04-29 21:31 46.25359 12.22983 36173 ft 461 kts 314°
2026-04-29 21:32 46.29976 12.16523 36169 ft 462 kts 314°
2026-04-29 21:32 46.34599 12.10041 36188 ft 466 kts 314°
2026-04-29 21:33 46.39261 12.03489 36169 ft 468 kts 314°
2026-04-29 21:33 46.43883 11.96973 36165 ft 467 kts 314°
2026-04-29 21:34 46.48538 11.90396 36166 ft 470 kts 314°
2026-04-29 21:34 46.53261 11.83706 36174 ft 477 kts 314°
2026-04-29 21:35 46.58017 11.76952 36180 ft 480 kts 314°
2026-04-29 21:35 46.62750 11.70029 36173 ft 483 kts 313°
2026-04-29 21:36 46.67308 11.63004 35824 ft 468 kts 313°
2026-04-29 21:36 46.69498 11.59650 35220 ft 447 kts 313°
2026-04-29 21:36 46.71590 11.56434 34657 ft 427 kts 312°
2026-04-29 21:36 46.73590 11.53346 34141 ft 412 kts 312°
2026-04-29 21:37 46.75541 11.50328 33599 ft 408 kts 312°
2026-04-29 21:37 46.77502 11.47298 33058 ft 412 kts 312°
2026-04-29 21:37 46.79475 11.44247 32518 ft 415 kts 312°
2026-04-29 21:37 46.81461 11.41170 31971 ft 417 kts 312°
2026-04-29 21:38 46.83482 11.38036 31429 ft 431 kts 313°
2026-04-29 21:38 46.85532 11.34853 30860 ft 431 kts 313°
2026-04-29 21:38 46.87584 11.31665 30298 ft 429 kts 313°
2026-04-29 21:38 46.89617 11.28501 29699 ft 424 kts 313°
2026-04-29 21:39 46.91604 11.25403 29160 ft 422 kts 313°
2026-04-29 21:39 46.93609 11.22293 28606 ft 418 kts 314°
2026-04-29 21:39 46.95882 11.19665 28041 ft 416 kts 326°
2026-04-29 21:39 46.98337 11.17435 27517 ft 415 kts 327°
2026-04-29 21:40 47.00775 11.15208 27004 ft 412 kts 327°
2026-04-29 21:40 47.03191 11.12969 26439 ft 408 kts 327°
2026-04-29 21:40 47.05583 11.10754 25921 ft 406 kts 328°
2026-04-29 21:40 47.07987 11.08542 25380 ft 408 kts 328°
2026-04-29 21:41 47.10277 11.06112 24856 ft 406 kts 322°
2026-04-29 21:41 47.12450 11.03479 24326 ft 404 kts 322°
2026-04-29 21:41 47.14609 11.00865 23789 ft 401 kts 322°
2026-04-29 21:41 47.16768 10.98301 23227 ft 397 kts 323°
2026-04-29 21:42 47.18882 10.95793 22714 ft 395 kts 322°
2026-04-29 21:42 47.21002 10.93247 22200 ft 391 kts 322°
2026-04-29 21:42 47.22422 10.91534 21857 ft 390 kts 322°
2026-04-29 21:42 47.25190 10.88208 21177 ft 386 kts 322°
2026-04-29 21:43 47.27266 10.85721 20668 ft 383 kts 322°
2026-04-29 21:43 47.29325 10.83242 20174 ft 381 kts 322°
2026-04-29 21:43 47.31367 10.80778 19661 ft 379 kts 323°
2026-04-29 21:43 47.33402 10.78326 19161 ft 376 kts 323°
2026-04-29 21:44 47.35420 10.75891 18667 ft 373 kts 323°
2026-04-29 21:44 47.37422 10.73472 18144 ft 371 kts 323°
2026-04-29 21:44 47.39408 10.71152 17663 ft 368 kts 326°
2026-04-29 21:44 47.41514 10.69037 17177 ft 365 kts 327°
2026-04-29 21:45 47.43605 10.66917 16697 ft 364 kts 327°
2026-04-29 21:45 47.45670 10.64792 16215 ft 361 kts 327°
2026-04-29 21:45 47.47731 10.62684 15752 ft 359 kts 327°
2026-04-29 21:45 47.49779 10.60601 15276 ft 357 kts 327°
2026-04-29 21:46 47.51814 10.58525 14812 ft 355 kts 327°
2026-04-29 21:46 47.53837 10.56452 14335 ft 353 kts 327°
2026-04-29 21:46 47.55852 10.54386 13853 ft 352 kts 327°
2026-04-29 21:46 47.57852 10.52322 13385 ft 350 kts 327°
2026-04-29 21:47 47.59844 10.50261 12920 ft 348 kts 327°
2026-04-29 21:47 47.61817 10.48219 12469 ft 338 kts 327°
2026-04-29 21:47 47.63658 10.46311 12041 ft 317 kts 327°
2026-04-29 21:47 47.65415 10.44490 11628 ft 300 kts 328°
2026-04-29 21:48 47.67085 10.42763 11256 ft 286 kts 328°
2026-04-29 21:48 47.68680 10.41110 10893 ft 273 kts 328°
2026-04-29 21:48 47.70177 10.39553 10543 ft 254 kts 327°
2026-04-29 21:48 47.71578 10.38098 10224 ft 238 kts 327°
2026-04-29 21:49 47.72907 10.36718 9878 ft 229 kts 328°
2026-04-29 21:49 47.74191 10.35316 9386 ft 230 kts 322°
2026-04-29 21:49 47.75038 10.33298 9018 ft 235 kts 296°
2026-04-29 21:49 47.75627 10.31023 8754 ft 234 kts 293°
2026-04-29 21:50 47.76205 10.28800 8461 ft 235 kts 293°
2026-04-29 21:50 47.76805 10.26531 8155 ft 237 kts 294°
2026-04-29 21:50 47.77410 10.24247 7844 ft 237 kts 294°
2026-04-29 21:50 47.78009 10.21966 7528 ft 237 kts 294°
2026-04-29 21:51 47.78609 10.19679 7217 ft 238 kts 293°
2026-04-29 21:51 47.79007 10.18163 7010 ft 237 kts 293°
2026-04-29 21:51 47.80403 10.12835 6250 ft 237 kts 294°
2026-04-29 21:52 47.80799 10.11323 6043 ft 238 kts 294°
2026-04-29 21:52 47.81558 10.09170 5681 ft 233 kts 315°
2026-04-29 21:52 47.82845 10.07800 5410 ft 227 kts 335°
2026-04-29 21:52 47.84667 10.06225 5059 ft 230 kts 336°
2026-04-29 21:53 47.85603 10.05400 4839 ft 232 kts 336°
2026-04-29 21:53 47.87437 10.03787 4437 ft 227 kts 338°
2026-04-29 21:53 47.88420 10.03304 4171 ft 215 kts
2026-04-29 21:53 47.89810 10.03549 3989 ft 188 kts 29°
2026-04-29 21:54 47.90897 10.04550 4005 ft 180 kts 51°
2026-04-29 21:54 47.91602 10.06026 4013 ft 176 kts 68°
2026-04-29 21:54 47.92066 10.07709 4020 ft 177 kts 68°
2026-04-29 21:54 47.92691 10.09108 3996 ft 145 kts 60°
2026-04-29 21:55 47.93321 10.10207 3996 ft 141 kts 52°
2026-04-29 21:55 47.93967 10.11252 3826 ft 131 kts 70°
2026-04-29 21:55 47.94337 10.12375 3721 ft 115 kts 68°
2026-04-29 21:55 47.94721 10.13399 3576 ft 111 kts 67°
2026-04-29 21:56 47.95099 10.14389 3432 ft 109 kts 67°
2026-04-29 21:56 47.95483 10.15363 3282 ft 108 kts 64°
2026-04-29 21:56 47.95862 10.16317 3133 ft 107 kts 63°
2026-04-29 21:56 47.96259 10.17321 2965 ft 117 kts 61°
2026-04-29 21:57 47.96684 10.18388 2804 ft 122 kts 60°
2026-04-29 21:57 47.97111 10.19475 2616 ft 123 kts 58°
2026-04-29 21:57 47.97549 10.20576 2434 ft 124 kts 58°
2026-04-29 21:57 47.97989 10.21696 2260 ft 125 kts 59°
2026-04-29 21:58 47.98428 10.22803 2104 ft 117 kts 60°
2026-04-29 21:58 47.98817 10.23829 2202 ft 125 kts 60°
2026-04-29 21:58 47.99297 10.25095 2483 ft 152 kts 61°
2026-04-29 21:58 47.99776 10.26430 2881 ft 138 kts 64°
2026-04-29 21:59 48.00318 10.27590 3116 ft 141 kts 53°
2026-04-29 21:59 48.01071 10.28587 3046 ft 158 kts 49°
2026-04-29 21:59 48.01971 10.29820 3044 ft 191 kts 47°
2026-04-29 21:59 48.03250 10.30418 2986 ft 214 kts
2026-04-29 22:00 48.04702 10.29626 3657 ft 225 kts 330°
2026-04-29 22:00 48.05707 10.27714 3988 ft 248 kts 297°
2026-04-29 22:00 48.05825 10.25140 3992 ft 256 kts 253°
2026-04-29 22:00 48.04892 10.22986 3991 ft 243 kts 212°
2026-04-29 22:01 48.03392 10.22015 4044 ft 234 kts 187°
2026-04-29 22:01 48.01803 10.21553 4037 ft 230 kts 178°
2026-04-29 22:01 48.00217 10.21427 4032 ft 229 kts 174°
2026-04-29 22:01 47.98628 10.21354 4030 ft 228 kts 174°
2026-04-29 22:02 47.97037 10.21282 4025 ft 229 kts 173°
2026-04-29 22:02 47.95442 10.20964 3958 ft 243 kts 193°
2026-04-29 22:02 47.94059 10.19487 4015 ft 254 kts 216°
2026-04-29 22:02 47.92765 10.17690 4030 ft 255 kts 216°
2026-04-29 22:03 47.91386 10.16046 4026 ft 253 kts 210°
2026-04-29 22:03 47.89979 10.14480 4021 ft 252 kts 210°
2026-04-29 22:03 47.88569 10.12952 4027 ft 250 kts 208°
2026-04-29 22:03 47.87154 10.11461 4022 ft 250 kts 208°
2026-04-29 22:04 47.85762 10.09878 3965 ft 258 kts 219°
2026-04-29 22:04 47.85016 10.07456 3920 ft 266 kts 261°
2026-04-29 22:04 47.85370 10.04826 3904 ft 260 kts 302°
2026-04-29 22:04 47.86663 10.03102 3925 ft 244 kts 344°
2026-04-29 22:05 47.88243 10.02963 3988 ft 220 kts 22°
2026-04-29 22:05 47.89652 10.03751 4044 ft 214 kts 31°
2026-04-29 22:05 47.91845 10.05962 3993 ft 177 kts 69°
2026-04-29 22:06 47.92396 10.07576 4032 ft 167 kts 65°
2026-04-29 22:06 47.92947 10.08944 3994 ft 145 kts 65°
2026-04-29 22:06 47.93457 10.10254 4006 ft 144 kts 65°
2026-04-29 22:06 47.93953 10.11500 3855 ft 135 kts 65°
2026-04-29 22:07 47.94412 10.12647 3673 ft 124 kts 65°
2026-04-29 22:07 47.94834 10.13718 3528 ft 116 kts 64°
2026-04-29 22:07 47.95238 10.14740 3374 ft 113 kts 64°
2026-04-29 22:07 47.95636 10.15742 3222 ft 111 kts 63°
2026-04-29 22:08 47.96023 10.16727 3069 ft 111 kts 63°
2026-04-29 22:08 47.96416 10.17719 2918 ft 113 kts 63°
2026-04-29 22:08 47.96830 10.18766 2729 ft 120 kts 61°
2026-04-29 22:08 47.97259 10.19847 2546 ft 122 kts 59°
2026-04-29 22:09 47.97696 10.20948 2379 ft 124 kts 59°
2026-04-29 22:09 47.98131 10.22056 2252 ft 122 kts 60°
2026-04-29 22:09 47.98549 10.23135 2105 ft 116 kts 58°
2026-04-29 22:09 47.98933 10.24053 2070 ft 93 kts 60°
2026-04-29 22:10 47.99177 10.24699 2065 ft 46 kts 60°
2026-04-29 22:10 47.99276 10.24957 2062 ft 16 kts 61°
2026-04-29 22:10 47.99302 10.25033 2061 ft 1 kts 352°
2026-04-29 22:10 47.99304 10.25026 2061 ft 1 kts 291°
2026-04-29 22:11 47.99296 10.24999 2062 ft 4 kts 240°
2026-04-29 22:11 47.99280 10.24957 2062 ft 5 kts 240°
2026-04-29 22:11 47.99259 10.24903 2063 ft 7 kts 239°
2026-04-29 22:11 47.99228 10.24823 2065 ft 11 kts 239°
2026-04-29 22:12 47.99182 10.24708 2065 ft 15 kts 239°
2026-04-29 22:12 47.99123 10.24562 2066 ft 17 kts 239°
2026-04-29 22:12 47.99059 10.24402 2066 ft 19 kts 239°
2026-04-29 22:12 47.98990 10.24227 2068 ft 20 kts 239°
2026-04-29 22:13 47.98920 10.24049 2070 ft 20 kts 240°
2026-04-29 22:13 47.98855 10.23881 2074 ft 12 kts 240°
2026-04-29 22:13 47.98833 10.23791 2075 ft 6 kts 286°
2026-04-29 22:13 47.98863 10.23749 2076 ft 5 kts 326°
2026-04-29 22:14 47.98894 10.23717 2077 ft 6 kts 322°
2026-04-29 22:14 47.98911 10.23632 2072 ft 13 kts 259°
2026-04-29 22:14 47.98886 10.23518 2074 ft 9 kts 249°
2026-04-29 22:14 47.98869 10.23452 2078 ft 6 kts 250°
2026-04-29 22:15 47.98851 10.23376 2076 ft 11 kts 250°
2026-04-29 22:15 47.98841 10.23324 2074 ft 3 kts 277°
2026-04-29 22:15 47.98856 10.23309 2073 ft 2 kts 351°
2026-04-29 22:15 47.98873 10.23304 2074 ft 3 kts 349°
2026-04-29 22:16 47.98885 10.23314 2074 ft 1 kts 51°
2026-04-29 22:16 47.98890 10.23325 2072 ft 2 kts 52°
2026-04-29 22:16 47.98893 10.23330 2072 ft 0 kts 52°